User: anonymous   Login
Location: Fort Wayne
(41.1310°N, 85.1290°W)
Time: 10:37:39
(UTC-04:00)
Language:

Cosmos 2219 Rocket - Orbit

View from above orbital plane
View from above orbital plane
View from above satellite
View from above satellite

Ground track
Ground track

The orbit data is extracted from the following two-line orbital elements,

1 22220U 92076B   17201.51308050 +.00000080 +00000-0 +64152-4 0  9995
2 22220 071.0011 349.0988 0014425 228.7548 169.0142 14.16418746275169
Epoch (UTC): 20 July 2017 12:18:50
Eccentricity: 0.0014425
inclination: 71.0011°
perigee height: 827 km
apogee height: 848 km
right ascension of ascending node: 349.0988°
argument of perigee: 228.7548°
revolutions per day: 14.16418746
mean anomaly at epoch: 169.0142°
orbit number at epoch: 27516

The dashed part of the orbit path shows where the satellite is in the earth's shadow,  

DLR